Location: Austin
(30.3000°N, 97.7500°W)
Time: 08:20:07
(UTC-06:00)

Cosmos 676 Rocket - Pass Details

Date: 12 February 2024
Orbit: 753 x 781 km, 74.0° (Epoch: 28 February)

Event Time Altitude Azimuth Distance (km) Brightness Sun altitude
Rises 19:52:14 0° 191° (SSW) 3,219 7.4 -21.1°
Reaches altitude 10° 19:54:37 10° 190° (S) 2,292 6.6 -21.6°
Maximum altitude 19:59:48 79° 105° (ESE) 777 3.8 -22.8°
Enters shadow 20:02:10 33° 23° (NNE) 1,252 4.8 -23.3°
